EZY87RX LGRP-EGBB

Flight info

Callsign EZY87RX
Flight time 4h 2m
Altitude 34000
Route VANES UM601 ADESO UN133 RIGRO DCT DISOR DCT LONTA UL608 DOLEV DCT DEVUL/N0444F360 DCT GORPA DCT MODSA DCT BABEG DCT LIRSU DCT ARCKY DCT BUB L608 DENUT L610 HEMEL
Aircraft A320/M-SDE3FGHIRWY/LB1

Departure

Time 2026-05-05 10:54
Airport Rhodes International Airport "Diagoras" (LGRP)

Arrival

Time 2026-05-05 14:56
Airport Birmingham Airport (EGBB)
Time Latitude Longitude Altitude Speed Heading
2026-05-05 10:38 36.40363 28.09138 28 ft 0 kts 160°
2026-05-05 10:47 36.40386 28.09127 28 ft 4 kts 154°
2026-05-05 10:48 36.40409 28.09110 28 ft 4 kts 136°
2026-05-05 10:48 36.40422 28.09086 28 ft 4 kts 84°
2026-05-05 10:48 36.40421 28.09078 28 ft 0 kts 70°
2026-05-05 10:50 36.40439 28.09139 28 ft 14 kts 70°
2026-05-05 10:50 36.40469 28.09245 28 ft 12 kts 70°
2026-05-05 10:50 36.40502 28.09332 28 ft 10 kts 55°
2026-05-05 10:50 36.40550 28.09382 28 ft 8 kts 34°
2026-05-05 10:51 36.40603 28.09459 28 ft 18 kts 59°
2026-05-05 10:51 36.40648 28.09621 28 ft 20 kts 70°
2026-05-05 10:51 36.40694 28.09772 28 ft 18 kts 70°
2026-05-05 10:51 36.40732 28.09907 28 ft 16 kts 70°
2026-05-05 10:52 36.40767 28.10026 28 ft 14 kts 70°
2026-05-05 10:52 36.40799 28.10131 28 ft 12 kts 69°
2026-05-05 10:52 36.40826 28.10222 28 ft 10 kts 69°
2026-05-05 10:52 36.40852 28.10308 28 ft 15 kts 71°
2026-05-05 10:53 36.40911 28.10423 28 ft 15 kts 20°
2026-05-05 10:53 36.40998 28.10365 27 ft 20 kts 303°
2026-05-05 10:53 36.40972 28.10079 27 ft 63 kts 248°
2026-05-05 10:53 36.40734 28.09287 31 ft 131 kts 250°
2026-05-05 10:54 36.40363 28.08035 219 ft 167 kts 248°
2026-05-05 10:54 36.39960 28.06595 684 ft 189 kts 257°
2026-05-05 10:54 36.39727 28.04885 1192 ft 211 kts 268°
2026-05-05 10:54 36.39596 28.02967 1525 ft 235 kts 271°
2026-05-05 10:55 36.39477 28.00890 2114 ft 246 kts 269°
2026-05-05 10:55 36.39344 27.98747 2839 ft 251 kts 269°
2026-05-05 10:55 36.39195 27.96581 3638 ft 254 kts 269°
2026-05-05 10:55 36.39033 27.94379 4364 ft 260 kts 269°
2026-05-05 10:56 36.38860 27.92110 5038 ft 267 kts 269°
2026-05-05 10:56 36.38679 27.89790 5747 ft 273 kts 269°
2026-05-05 10:56 36.38490 27.87424 6464 ft 278 kts 267°
2026-05-05 10:56 36.38373 27.85019 7143 ft 280 kts 274°
2026-05-05 10:57 36.38400 27.82601 7926 ft 281 kts 275°
2026-05-05 10:57 36.38426 27.80169 8666 ft 283 kts 274°
2026-05-05 10:57 36.38454 27.77716 9387 ft 286 kts 275°
2026-05-05 10:57 36.38482 27.75266 10067 ft 289 kts 275°
2026-05-05 10:58 36.38569 27.72700 10301 ft 308 kts 281°
2026-05-05 10:58 36.38903 27.69985 10442 ft 329 kts 282°
2026-05-05 10:58 36.39270 27.67118 10811 ft 341 kts 282°
2026-05-05 10:58 36.39641 27.64193 11408 ft 345 kts 282°
2026-05-05 10:59 36.40012 27.61239 12059 ft 347 kts 282°
2026-05-05 10:59 36.40382 27.58269 12731 ft 349 kts 282°
2026-05-05 10:59 36.40755 27.55278 13372 ft 352 kts 282°
2026-05-05 10:59 36.41131 27.52270 14006 ft 354 kts 281°
2026-05-05 11:00 36.41507 27.49239 14562 ft 356 kts 281°
2026-05-05 11:00 36.41885 27.46194 15120 ft 358 kts 282°
2026-05-05 11:00 36.42267 27.43125 15658 ft 361 kts 281°
2026-05-05 11:00 36.42652 27.40037 16213 ft 363 kts 281°
2026-05-05 11:01 36.43038 27.36933 16767 ft 365 kts 281°
2026-05-05 11:01 36.43298 27.34828 17164 ft 366 kts 281°
2026-05-05 11:01 36.43682 27.31696 17645 ft 367 kts 281°
2026-05-05 11:01 36.44062 27.28594 18166 ft 369 kts 281°
2026-05-05 11:02 36.44450 27.25432 18652 ft 371 kts 281°
2026-05-05 11:02 36.44841 27.22255 19124 ft 374 kts 281°
2026-05-05 11:02 36.45231 27.19051 19611 ft 376 kts 280°
2026-05-05 11:02 36.45619 27.15832 20065 ft 378 kts 280°
2026-05-05 11:03 36.46008 27.12592 20520 ft 381 kts 280°
2026-05-05 11:03 36.46401 27.09328 20990 ft 383 kts 280°
2026-05-05 11:03 36.46799 27.06049 21440 ft 385 kts 280°
2026-05-05 11:03 36.47201 27.02749 21879 ft 387 kts 279°
2026-05-05 11:04 36.47603 26.99433 22307 ft 390 kts 279°
2026-05-05 11:04 36.48009 26.96092 22732 ft 392 kts 279°
2026-05-05 11:04 36.48415 26.92738 23136 ft 394 kts 279°
2026-05-05 11:04 36.48827 26.89361 23537 ft 396 kts 279°
2026-05-05 11:05 36.49242 26.85965 23883 ft 398 kts 279°
2026-05-05 11:05 36.49651 26.82555 24221 ft 400 kts 279°
2026-05-05 11:05 36.50056 26.79130 24549 ft 401 kts 279°
2026-05-05 11:05 36.50461 26.75687 24866 ft 403 kts 279°
2026-05-05 11:06 36.50866 26.72238 25191 ft 404 kts 279°
2026-05-05 11:06 36.51274 26.68776 25499 ft 406 kts 279°
2026-05-05 11:06 36.51683 26.65296 25802 ft 407 kts 279°
2026-05-05 11:06 36.52094 26.61807 26108 ft 409 kts 279°
2026-05-05 11:07 36.52584 26.58324 26404 ft 409 kts 286°
2026-05-05 11:07 36.53572 26.55018 26678 ft 409 kts 298°
2026-05-05 11:07 36.55091 26.52043 26974 ft 409 kts 309°
2026-05-05 11:07 36.57080 26.49518 27260 ft 410 kts 320°
2026-05-05 11:08 36.59454 26.47554 27525 ft 412 kts 332°
2026-05-05 11:08 36.62052 26.46017 27813 ft 414 kts 333°
2026-05-05 11:08 36.64663 26.44495 28101 ft 414 kts 333°
2026-05-05 11:08 36.67276 26.42967 28368 ft 415 kts 333°
2026-05-05 11:09 36.69893 26.41432 28636 ft 416 kts 333°
2026-05-05 11:09 36.72512 26.39893 28890 ft 417 kts 333°
2026-05-05 11:09 36.75141 26.38346 29158 ft 418 kts 333°
2026-05-05 11:09 36.77774 26.36800 29374 ft 419 kts 333°
2026-05-05 11:10 36.80361 26.35284 29593 ft 420 kts 333°
2026-05-05 11:10 36.83011 26.33730 29811 ft 421 kts 333°
2026-05-05 11:10 36.85665 26.32172 30046 ft 421 kts 333°
2026-05-05 11:10 36.88309 26.30613 30324 ft 420 kts 333°
2026-05-05 11:11 36.90945 26.29057 30581 ft 418 kts 333°
2026-05-05 11:11 36.93572 26.27505 30838 ft 417 kts 333°
2026-05-05 11:11 36.96187 26.25959 31096 ft 416 kts 333°
2026-05-05 11:11 36.98798 26.24411 31361 ft 413 kts 333°
2026-05-05 11:12 37.01377 26.22854 31676 ft 410 kts 333°
2026-05-05 11:12 37.03936 26.21290 31924 ft 409 kts 333°
2026-05-05 11:12 37.06486 26.19724 32172 ft 408 kts 333°
2026-05-05 11:12 37.09037 26.18154 32405 ft 408 kts 333°
2026-05-05 11:13 37.11582 26.16593 32634 ft 407 kts 333°
2026-05-05 11:13 37.14122 26.15039 32861 ft 406 kts 333°
2026-05-05 11:13 37.16630 26.13506 33086 ft 406 kts 333°
2026-05-05 11:13 37.19162 26.11960 33311 ft 405 kts 333°
2026-05-05 11:14 37.21696 26.10413 33539 ft 404 kts 333°
2026-05-05 11:14 37.24220 26.08871 33763 ft 403 kts 333°
2026-05-05 11:14 37.26741 26.07325 34005 ft 403 kts 333°
2026-05-05 11:15 37.31766 26.04237 34104 ft 401 kts 333°
2026-05-05 11:15 37.36769 26.01158 34099 ft 400 kts 333°
2026-05-05 11:16 37.41758 25.98079 34104 ft 400 kts 333°
2026-05-05 11:16 37.46748 25.94995 34081 ft 399 kts 333°
2026-05-05 11:17 37.51740 25.91911 34114 ft 400 kts 333°
2026-05-05 11:17 37.56738 25.88823 34114 ft 400 kts 333°
2026-05-05 11:18 37.61574 25.85372 34104 ft 399 kts 327°
2026-05-05 11:18 37.66264 25.81612 34103 ft 399 kts 327°
2026-05-05 11:19 37.70950 25.77846 34100 ft 399 kts 327°
2026-05-05 11:19 37.75601 25.74107 34099 ft 399 kts 327°
2026-05-05 11:20 37.80289 25.70334 34104 ft 400 kts 327°
2026-05-05 11:20 37.84978 25.66560 34109 ft 400 kts 327°
2026-05-05 11:21 37.89671 25.62778 34093 ft 400 kts 327°
2026-05-05 11:21 37.94353 25.58987 34093 ft 399 kts 327°
2026-05-05 11:22 37.99031 25.55195 34098 ft 399 kts 327°
2026-05-05 11:22 38.03704 25.51396 34105 ft 399 kts 327°
2026-05-05 11:23 38.08384 25.47594 34100 ft 399 kts 327°
2026-05-05 11:23 38.13057 25.43787 34101 ft 399 kts 327°
2026-05-05 11:24 38.17731 25.39978 34101 ft 399 kts 327°
2026-05-05 11:24 38.22402 25.36164 34098 ft 399 kts 327°
2026-05-05 11:25 38.27077 25.32352 34082 ft 399 kts 327°
2026-05-05 11:25 38.31742 25.28534 34102 ft 398 kts 327°
2026-05-05 11:26 38.36369 25.24737 34099 ft 398 kts 327°
2026-05-05 11:26 38.41028 25.20911 34102 ft 398 kts 327°
2026-05-05 11:27 38.45681 25.17084 34096 ft 398 kts 327°
2026-05-05 11:27 38.50332 25.13254 34094 ft 398 kts 327°
2026-05-05 11:28 38.54988 25.09415 34094 ft 398 kts 327°
2026-05-05 11:28 38.59639 25.05571 34102 ft 398 kts 327°
2026-05-05 11:29 38.64281 25.01727 34105 ft 397 kts 327°
2026-05-05 11:29 38.68913 24.97885 34088 ft 397 kts 327°
2026-05-05 11:30 38.73539 24.94045 34093 ft 396 kts 327°
2026-05-05 11:30 38.78163 24.90205 34096 ft 396 kts 327°
2026-05-05 11:31 38.82777 24.86361 34110 ft 396 kts 327°
2026-05-05 11:31 38.87393 24.82499 34102 ft 396 kts 327°
2026-05-05 11:32 38.92014 24.78645 34099 ft 396 kts 327°
2026-05-05 11:32 38.96639 24.74778 34098 ft 396 kts 327°
2026-05-05 11:33 39.01257 24.70908 34100 ft 396 kts 327°
2026-05-05 11:33 39.05876 24.67030 34096 ft 396 kts 327°
2026-05-05 11:34 39.10493 24.63152 34103 ft 397 kts 327°
2026-05-05 11:34 39.15115 24.59267 34098 ft 397 kts 327°
2026-05-05 11:35 39.19736 24.55366 34089 ft 397 kts 327°
2026-05-05 11:35 39.24323 24.51480 34081 ft 397 kts 327°
2026-05-05 11:36 39.28945 24.47575 34085 ft 397 kts 327°
2026-05-05 11:36 39.33565 24.43655 34092 ft 397 kts 326°
2026-05-05 11:37 39.38183 24.39732 34077 ft 397 kts 327°
2026-05-05 11:37 39.42800 24.35809 34077 ft 397 kts 327°
2026-05-05 11:38 39.47412 24.31879 34080 ft 397 kts 326°
2026-05-05 11:38 39.52018 24.27949 34084 ft 396 kts 326°
2026-05-05 11:39 39.56619 24.24014 34086 ft 396 kts 326°
2026-05-05 11:39 39.61214 24.20071 34090 ft 396 kts 326°
2026-05-05 11:40 39.65818 24.16120 34086 ft 397 kts 327°
2026-05-05 11:40 39.70395 24.12203 34082 ft 397 kts 327°
2026-05-05 11:41 39.75006 24.08252 34080 ft 397 kts 326°
2026-05-05 11:41 39.79611 24.04292 34069 ft 397 kts 326°
2026-05-05 11:42 39.84206 24.00324 34073 ft 397 kts 326°
2026-05-05 11:42 39.88806 23.96347 34075 ft 397 kts 326°
2026-05-05 11:43 39.93400 23.92365 34079 ft 397 kts 326°
2026-05-05 11:43 39.97997 23.88378 34079 ft 397 kts 326°
2026-05-05 11:44 40.02594 23.84388 34076 ft 397 kts 326°
2026-05-05 11:44 40.07194 23.80395 34077 ft 397 kts 326°
2026-05-05 11:45 40.11793 23.76384 34082 ft 397 kts 326°
2026-05-05 11:45 40.16389 23.72367 34055 ft 398 kts 326°
2026-05-05 11:46 40.20990 23.68352 34059 ft 398 kts 326°
2026-05-05 11:46 40.25593 23.64323 34065 ft 398 kts 326°
2026-05-05 11:47 40.30191 23.60284 34062 ft 398 kts 326°
2026-05-05 11:47 40.34788 23.56238 34064 ft 398 kts 326°
2026-05-05 11:48 40.40908 23.50850 34070 ft 398 kts 326°
2026-05-05 11:48 40.45508 23.46801 34059 ft 398 kts 326°
2026-05-05 11:49 40.50105 23.42744 34050 ft 398 kts 326°
2026-05-05 11:49 40.54697 23.38672 34052 ft 398 kts 326°
2026-05-05 11:50 40.59293 23.34601 34059 ft 398 kts 326°
2026-05-05 11:50 40.63891 23.30524 34056 ft 399 kts 326°
2026-05-05 11:51 40.68488 23.26433 34051 ft 399 kts 326°
2026-05-05 11:51 40.73079 23.22336 34050 ft 399 kts 326°
2026-05-05 11:52 40.77671 23.18232 34053 ft 399 kts 326°
2026-05-05 11:52 40.82267 23.14132 34046 ft 399 kts 326°
2026-05-05 11:53 40.86863 23.10021 34027 ft 399 kts 325°
2026-05-05 11:53 40.91451 23.05896 34031 ft 399 kts 326°
2026-05-05 11:54 40.96013 23.01796 34037 ft 399 kts 326°
2026-05-05 11:54 41.00607 22.97671 34044 ft 399 kts 326°
2026-05-05 11:55 41.05201 22.93535 34038 ft 399 kts 326°
2026-05-05 11:55 41.09784 22.89391 34054 ft 399 kts 325°
2026-05-05 11:56 41.14376 22.85235 34047 ft 400 kts 325°
2026-05-05 11:56 41.18968 22.81065 34051 ft 400 kts 325°
2026-05-05 11:57 41.23558 22.76887 34027 ft 400 kts 323°
2026-05-05 11:57 41.27537 22.71748 34033 ft 400 kts 313°
2026-05-05 11:58 41.31279 22.66281 34058 ft 400 kts 313°
2026-05-05 11:58 41.35014 22.60803 34066 ft 399 kts 313°
2026-05-05 11:59 41.38749 22.55320 34064 ft 400 kts 313°
2026-05-05 11:59 41.42487 22.49820 34062 ft 400 kts 313°
2026-05-05 12:00 41.46222 22.44319 34055 ft 400 kts 313°
2026-05-05 12:00 41.49932 22.38846 34066 ft 400 kts 313°
2026-05-05 12:01 41.53663 22.33335 34072 ft 400 kts 313°
2026-05-05 12:01 41.57399 22.27814 34078 ft 401 kts 313°
2026-05-05 12:02 41.61133 22.22268 34068 ft 401 kts 313°
2026-05-05 12:02 41.64865 22.16726 34075 ft 401 kts 313°
2026-05-05 12:03 41.68602 22.11166 34058 ft 402 kts 312°
2026-05-05 12:03 41.72333 22.05596 34069 ft 402 kts 312°
2026-05-05 12:04 41.76064 22.00010 34067 ft 402 kts 312°
2026-05-05 12:04 41.79794 21.94429 34062 ft 402 kts 312°
2026-05-05 12:05 41.83522 21.88843 34055 ft 402 kts 312°
2026-05-05 12:05 41.87218 21.83283 34056 ft 402 kts 312°
2026-05-05 12:06 41.90939 21.77673 34043 ft 402 kts 312°
2026-05-05 12:06 41.94657 21.72064 34043 ft 402 kts 312°
2026-05-05 12:07 41.98380 21.66443 34031 ft 403 kts 311°
2026-05-05 12:07 42.02100 21.60814 34043 ft 403 kts 311°
2026-05-05 12:08 42.05816 21.55172 34077 ft 403 kts 311°
2026-05-05 12:08 42.09529 21.49520 34077 ft 403 kts 311°
2026-05-05 12:09 42.13239 21.43857 34080 ft 403 kts 311°
2026-05-05 12:09 42.16944 21.38189 34089 ft 403 kts 311°
2026-05-05 12:10 42.20595 21.32441 34081 ft 404 kts 310°
2026-05-05 12:10 42.24218 21.26650 34082 ft 404 kts 310°
2026-05-05 12:11 42.27848 21.20848 34082 ft 405 kts 310°
2026-05-05 12:11 42.31493 21.15048 34079 ft 405 kts 310°
2026-05-05 12:12 42.35135 21.09248 34066 ft 404 kts 310°
2026-05-05 12:12 42.38769 21.03444 34084 ft 404 kts 310°
2026-05-05 12:13 42.42398 20.97634 34087 ft 404 kts 310°
2026-05-05 12:13 42.46021 20.91820 34089 ft 404 kts 310°
2026-05-05 12:14 42.49641 20.85994 34072 ft 405 kts 310°
2026-05-05 12:14 42.53268 20.80147 34060 ft 406 kts 310°
2026-05-05 12:15 42.56893 20.74289 34083 ft 405 kts 309°
2026-05-05 12:15 42.60516 20.68432 34085 ft 405 kts 309°
2026-05-05 12:16 42.64130 20.62564 34087 ft 405 kts 309°
2026-05-05 12:16 42.67746 20.56700 34081 ft 405 kts 309°
2026-05-05 12:17 42.71333 20.50879 34084 ft 404 kts 309°
2026-05-05 12:17 42.74934 20.44996 34081 ft 404 kts 309°
2026-05-05 12:18 42.78524 20.39121 34081 ft 404 kts 309°
2026-05-05 12:18 42.82113 20.33234 34065 ft 404 kts 309°
2026-05-05 12:19 42.85734 20.27360 34063 ft 405 kts 310°
2026-05-05 12:19 42.89428 20.21555 34057 ft 405 kts 310°
2026-05-05 12:20 42.93127 20.15750 34053 ft 406 kts 310°
2026-05-05 12:20 42.96806 20.09922 34065 ft 405 kts 310°
2026-05-05 12:21 43.00466 20.04087 34072 ft 404 kts 309°
2026-05-05 12:21 43.04122 19.98260 34076 ft 403 kts 310°
2026-05-05 12:22 43.07771 19.92441 34069 ft 403 kts 309°
2026-05-05 12:22 43.11392 19.86658 34062 ft 403 kts 309°
2026-05-05 12:23 43.15031 19.80825 34066 ft 403 kts 309°
2026-05-05 12:23 43.18661 19.74973 34046 ft 403 kts 309°
2026-05-05 12:24 43.22298 19.69105 34045 ft 404 kts 309°
2026-05-05 12:24 43.25966 19.63195 34048 ft 404 kts 309°
2026-05-05 12:25 43.29592 19.57348 34052 ft 405 kts 309°
2026-05-05 12:25 43.33235 19.51445 34052 ft 405 kts 309°
2026-05-05 12:26 43.36874 19.45527 34042 ft 406 kts 309°
2026-05-05 12:26 43.40532 19.39589 34034 ft 407 kts 309°
2026-05-05 12:27 43.44189 19.33631 34035 ft 408 kts 309°
2026-05-05 12:27 43.47847 19.27656 34043 ft 408 kts 309°
2026-05-05 12:28 43.51511 19.21670 34034 ft 409 kts 309°
2026-05-05 12:28 43.55175 19.15659 34017 ft 410 kts 308°
2026-05-05 12:29 43.58847 19.09618 34038 ft 411 kts 308°
2026-05-05 12:29 43.62523 19.03567 34038 ft 411 kts 308°
2026-05-05 12:30 43.66195 18.97515 34044 ft 411 kts 308°
2026-05-05 12:30 43.69863 18.91449 34037 ft 412 kts 308°
2026-05-05 12:31 43.73532 18.85351 34027 ft 413 kts 308°
2026-05-05 12:31 43.77212 18.79240 34007 ft 414 kts 308°
2026-05-05 12:32 43.80900 18.73111 34026 ft 415 kts 308°
2026-05-05 12:32 43.84593 18.66969 34029 ft 415 kts 308°
2026-05-05 12:33 43.88278 18.60813 34022 ft 415 kts 308°
2026-05-05 12:33 43.91958 18.54635 34016 ft 415 kts 308°
2026-05-05 12:34 43.95621 18.48480 34024 ft 416 kts 307°
2026-05-05 12:34 43.99308 18.42280 34021 ft 416 kts 308°
2026-05-05 12:35 44.02992 18.36087 34017 ft 416 kts 308°
2026-05-05 12:35 44.06054 18.30919 34016 ft 416 kts 308°
2026-05-05 12:36 44.09732 18.24698 34023 ft 416 kts 307°
2026-05-05 12:36 44.13401 18.18474 34034 ft 415 kts 307°
2026-05-05 12:37 44.17059 18.12248 34027 ft 415 kts 307°
2026-05-05 12:37 44.20714 18.06013 34009 ft 416 kts 307°
2026-05-05 12:38 44.24375 17.99763 33998 ft 416 kts 307°
2026-05-05 12:38 44.28044 17.93499 33990 ft 417 kts 307°
2026-05-05 12:39 44.31711 17.87222 34002 ft 417 kts 307°
2026-05-05 12:39 44.35366 17.80939 34001 ft 418 kts 307°
2026-05-05 12:40 44.39039 17.74613 33990 ft 419 kts 306°
2026-05-05 12:40 44.42714 17.68270 33991 ft 420 kts 306°
2026-05-05 12:41 44.46383 17.61914 34001 ft 420 kts 306°
2026-05-05 12:41 44.50052 17.55546 33996 ft 420 kts 306°
2026-05-05 12:42 44.53735 17.49154 33991 ft 422 kts 306°
2026-05-05 12:42 44.57424 17.42750 33989 ft 423 kts 306°
2026-05-05 12:43 44.61122 17.36313 33982 ft 424 kts 306°
2026-05-05 12:43 44.64785 17.29893 33984 ft 424 kts 306°
2026-05-05 12:44 44.68467 17.23412 33978 ft 425 kts 306°
2026-05-05 12:44 44.72167 17.16904 33961 ft 427 kts 306°
2026-05-05 12:45 44.75886 17.10364 33958 ft 429 kts 306°
2026-05-05 12:45 44.79610 17.03795 33962 ft 430 kts 306°
2026-05-05 12:46 44.83333 16.97206 33966 ft 430 kts 306°
2026-05-05 12:46 44.86991 16.90728 33971 ft 431 kts 306°
2026-05-05 12:47 44.90727 16.84102 33982 ft 432 kts 306°
2026-05-05 12:47 44.94459 16.77453 33996 ft 431 kts 306°
2026-05-05 12:48 44.98170 16.70815 34008 ft 430 kts 306°
2026-05-05 12:48 45.01876 16.64175 34008 ft 430 kts 305°
2026-05-05 12:49 45.05544 16.57599 33989 ft 432 kts 305°
2026-05-05 12:49 45.09266 16.50913 33985 ft 432 kts 305°
2026-05-05 12:50 45.12980 16.44213 33992 ft 433 kts 305°
2026-05-05 12:50 45.16813 16.37613 33992 ft 434 kts 308°
2026-05-05 12:51 45.20781 16.31131 33997 ft 436 kts 308°
2026-05-05 12:51 45.24755 16.24623 33991 ft 437 kts 307°
2026-05-05 12:52 45.28691 16.18042 33996 ft 437 kts 308°
2026-05-05 12:52 45.32614 16.11432 34000 ft 438 kts 308°
2026-05-05 12:53 45.36543 16.04812 34009 ft 438 kts 308°
2026-05-05 12:53 45.40443 15.98241 34016 ft 437 kts 308°
2026-05-05 12:54 45.46319 15.88317 34019 ft 436 kts 307°
2026-05-05 12:55 45.50224 15.81695 34025 ft 436 kts 307°
2026-05-05 12:55 45.54121 15.75072 34020 ft 436 kts 307°
2026-05-05 12:56 45.58016 15.68439 34021 ft 436 kts 307°
2026-05-05 12:56 45.61890 15.61832 34023 ft 435 kts 307°
2026-05-05 12:57 45.65768 15.55193 34023 ft 435 kts 307°
2026-05-05 12:57 45.69641 15.48548 34011 ft 435 kts 307°
2026-05-05 12:58 45.73506 15.41887 34021 ft 434 kts 306°
2026-05-05 12:58 45.77365 15.35236 34017 ft 434 kts 306°
2026-05-05 12:59 45.81350 15.28715 34018 ft 435 kts 310°
2026-05-05 12:59 45.85475 15.22339 34012 ft 436 kts 310°
2026-05-05 13:00 45.91592 15.12746 34012 ft 436 kts 310°
2026-05-05 13:01 45.99721 14.99721 34002 ft 438 kts 309°
2026-05-05 13:01 46.03805 14.93194 34005 ft 439 kts 309°
2026-05-05 13:02 46.07886 14.86662 34008 ft 439 kts 309°
2026-05-05 13:02 46.11958 14.80118 34010 ft 438 kts 309°
2026-05-05 13:03 46.16027 14.73562 34011 ft 439 kts 309°
2026-05-05 13:03 46.20091 14.66994 34011 ft 438 kts 309°
2026-05-05 13:04 46.24143 14.60412 34028 ft 439 kts 308°
2026-05-05 13:04 46.28193 14.53814 34034 ft 439 kts 308°
2026-05-05 13:05 46.32214 14.47267 34030 ft 438 kts 309°
2026-05-05 13:05 46.36256 14.40684 34022 ft 437 kts 309°
2026-05-05 13:06 46.40294 14.34090 34008 ft 437 kts 309°
2026-05-05 13:06 46.44319 14.27493 33973 ft 437 kts 308°
2026-05-05 13:07 46.48343 14.20889 33985 ft 436 kts 308°
2026-05-05 13:07 46.52351 14.14282 33986 ft 436 kts 308°
2026-05-05 13:08 46.56353 14.07654 33978 ft 436 kts 308°
2026-05-05 13:08 46.60357 14.01022 33977 ft 436 kts 308°
2026-05-05 13:09 46.64360 13.94390 33961 ft 436 kts 308°
2026-05-05 13:09 46.68352 13.87747 33978 ft 435 kts 308°
2026-05-05 13:10 46.72325 13.81112 33964 ft 434 kts 308°
2026-05-05 13:10 46.76267 13.74521 33975 ft 433 kts 308°
2026-05-05 13:11 46.80232 13.67884 33954 ft 434 kts 308°
2026-05-05 13:11 46.84195 13.61232 33945 ft 435 kts 308°
2026-05-05 13:12 46.88158 13.54549 33945 ft 435 kts 307°
2026-05-05 13:12 46.92120 13.47848 33952 ft 436 kts 307°
2026-05-05 13:13 46.96083 13.41142 33933 ft 436 kts 307°
2026-05-05 13:13 47.00051 13.34428 33934 ft 436 kts 307°
2026-05-05 13:14 47.04011 13.27694 33920 ft 436 kts 307°
2026-05-05 13:14 47.07964 13.20941 33929 ft 436 kts 307°
2026-05-05 13:15 47.11913 13.14185 33932 ft 436 kts 307°
2026-05-05 13:15 47.15857 13.07421 33895 ft 436 kts 307°
2026-05-05 13:16 47.19802 13.00645 33895 ft 436 kts 307°
2026-05-05 13:16 47.23746 12.93859 33851 ft 436 kts 307°
2026-05-05 13:17 47.27686 12.87062 33864 ft 437 kts 306°
2026-05-05 13:17 47.31617 12.80247 33862 ft 436 kts 307°
2026-05-05 13:18 47.35520 12.73481 33841 ft 435 kts 307°
2026-05-05 13:18 47.39442 12.66674 33835 ft 435 kts 307°
2026-05-05 13:19 47.43352 12.59849 33831 ft 435 kts 306°
2026-05-05 13:19 47.47255 12.53008 33813 ft 436 kts 306°
2026-05-05 13:20 47.51167 12.46149 33805 ft 436 kts 306°
2026-05-05 13:20 47.55081 12.39279 33799 ft 437 kts 306°
2026-05-05 13:21 47.58990 12.32391 33790 ft 438 kts 306°
2026-05-05 13:21 47.62903 12.25476 33779 ft 438 kts 306°
2026-05-05 13:22 47.66347 12.18088 33789 ft 435 kts 298°
2026-05-05 13:22 47.69542 12.10451 33784 ft 436 kts 298°
2026-05-05 13:23 47.72732 12.02806 33783 ft 435 kts 298°
2026-05-05 13:23 47.75385 11.96445 33781 ft 435 kts 298°
2026-05-05 13:24 47.78570 11.88794 33785 ft 435 kts 298°
2026-05-05 13:24 47.81742 11.81136 33783 ft 436 kts 297°
2026-05-05 13:25 47.84926 11.73441 33766 ft 437 kts 298°
2026-05-05 13:25 47.88120 11.65719 33771 ft 438 kts 298°
2026-05-05 13:26 47.91306 11.57969 33782 ft 439 kts 298°
2026-05-05 13:26 47.94487 11.50196 33817 ft 439 kts 297°
2026-05-05 13:27 47.97675 11.42407 33820 ft 440 kts 297°
2026-05-05 13:27 48.00862 11.34592 33827 ft 441 kts 297°
2026-05-05 13:28 48.04046 11.26766 33827 ft 441 kts 297°
2026-05-05 13:28 48.07208 11.18980 33801 ft 441 kts 297°
2026-05-05 13:29 48.10384 11.11132 33829 ft 441 kts 296°
2026-05-05 13:29 48.13586 11.03201 33815 ft 443 kts 296°
2026-05-05 13:30 48.16758 10.95297 33822 ft 443 kts 296°
2026-05-05 13:30 48.19905 10.87419 33821 ft 444 kts 296°
2026-05-05 13:31 48.23073 10.79486 33825 ft 444 kts 296°
2026-05-05 13:31 48.26248 10.71520 33833 ft 445 kts 296°
2026-05-05 13:32 48.29428 10.63526 33816 ft 447 kts 296°
2026-05-05 13:32 48.32608 10.55496 33812 ft 448 kts 296°
2026-05-05 13:33 48.35789 10.47442 33818 ft 448 kts 296°
2026-05-05 13:33 48.38965 10.39382 33820 ft 449 kts 296°
2026-05-05 13:34 48.42146 10.31292 33838 ft 450 kts 296°
2026-05-05 13:34 48.45328 10.23160 33829 ft 451 kts 296°
2026-05-05 13:35 48.48511 10.15001 33828 ft 452 kts 296°
2026-05-05 13:35 48.51687 10.06820 33831 ft 452 kts 296°
2026-05-05 13:36 48.54862 9.98620 33852 ft 453 kts 296°
2026-05-05 13:36 48.58043 9.90398 33832 ft 454 kts 296°
2026-05-05 13:37 48.61223 9.82153 33826 ft 454 kts 296°
2026-05-05 13:37 48.64392 9.73878 33832 ft 455 kts 295°
2026-05-05 13:38 48.67641 9.65655 33832 ft 458 kts 302°
2026-05-05 13:38 48.71496 9.57940 33850 ft 460 kts 303°
2026-05-05 13:39 48.75359 9.50190 33835 ft 461 kts 303°
2026-05-05 13:39 48.79213 9.42421 33829 ft 461 kts 303°
2026-05-05 13:40 48.83075 9.34635 33845 ft 462 kts 303°
2026-05-05 13:40 48.86929 9.26838 33844 ft 462 kts 302°
2026-05-05 13:41 48.90775 9.19012 33856 ft 463 kts 303°
2026-05-05 13:41 48.94627 9.11163 33842 ft 463 kts 302°
2026-05-05 13:42 48.98481 9.03297 33848 ft 463 kts 302°
2026-05-05 13:42 49.02331 8.95429 33849 ft 463 kts 302°
2026-05-05 13:43 49.06162 8.87551 33849 ft 463 kts 302°
2026-05-05 13:43 49.09972 8.79694 33861 ft 463 kts 302°
2026-05-05 13:44 49.13800 8.71779 33847 ft 463 kts 302°
2026-05-05 13:44 49.17625 8.63855 33841 ft 464 kts 302°
2026-05-05 13:45 49.21453 8.55912 33837 ft 463 kts 302°
2026-05-05 13:45 49.25263 8.47957 33840 ft 463 kts 302°
2026-05-05 13:46 49.29058 8.40009 33841 ft 462 kts 302°
2026-05-05 13:46 49.32855 8.32053 33836 ft 462 kts 302°
2026-05-05 13:47 49.36642 8.24085 33835 ft 462 kts 302°
2026-05-05 13:47 49.40420 8.16105 33834 ft 462 kts 301°
2026-05-05 13:48 49.44195 8.08118 33832 ft 462 kts 301°
2026-05-05 13:48 49.47960 8.00122 33836 ft 462 kts 301°
2026-05-05 13:49 49.51726 7.92090 33832 ft 463 kts 301°
2026-05-05 13:49 49.55485 7.84053 33831 ft 463 kts 301°
2026-05-05 13:50 49.59224 7.76042 33831 ft 463 kts 301°
2026-05-05 13:50 49.62982 7.67967 33831 ft 463 kts 301°
2026-05-05 13:51 49.66740 7.59877 33831 ft 464 kts 301°
2026-05-05 13:51 49.70502 7.51753 33825 ft 465 kts 301°
2026-05-05 13:52 49.74252 7.43611 33820 ft 465 kts 300°
2026-05-05 13:52 49.78001 7.35457 33827 ft 465 kts 301°
2026-05-05 13:53 49.81747 7.27300 33825 ft 465 kts 300°
2026-05-05 13:53 49.85484 7.19128 33833 ft 465 kts 300°
2026-05-05 13:54 49.89218 7.10931 33830 ft 466 kts 300°
2026-05-05 13:54 49.92943 7.02706 33847 ft 466 kts 300°
2026-05-05 13:55 49.96668 6.94469 33826 ft 466 kts 300°
2026-05-05 13:55 50.00401 6.86213 33830 ft 466 kts 300°
2026-05-05 13:56 50.04110 6.77975 33853 ft 464 kts 300°
2026-05-05 13:56 50.07783 6.69799 33848 ft 463 kts 300°
2026-05-05 13:57 50.11460 6.61566 33845 ft 463 kts 300°
2026-05-05 13:57 50.15128 6.53326 33828 ft 462 kts 300°
2026-05-05 13:58 50.18757 6.45051 33823 ft 460 kts 295°
2026-05-05 13:58 50.21837 6.36357 33839 ft 457 kts 293°
2026-05-05 13:59 50.26420 6.23286 33838 ft 457 kts 293°
2026-05-05 14:00 50.30473 6.11706 33851 ft 455 kts 293°
2026-05-05 14:00 50.34272 6.01740 33858 ft 457 kts 296°
2026-05-05 14:01 50.37616 5.93378 33879 ft 455 kts 297°
2026-05-05 14:01 50.40924 5.84958 33869 ft 453 kts 297°
2026-05-05 14:02 50.44171 5.76499 33866 ft 452 kts 296°
2026-05-05 14:02 50.47394 5.68054 33876 ft 451 kts 296°
2026-05-05 14:03 50.50622 5.59607 33870 ft 451 kts 296°
2026-05-05 14:03 50.53847 5.51161 33883 ft 450 kts 297°
2026-05-05 14:04 50.57061 5.42728 33884 ft 449 kts 297°
2026-05-05 14:04 50.60238 5.34347 33884 ft 448 kts 296°
2026-05-05 14:05 50.63442 5.25857 33870 ft 448 kts 296°
2026-05-05 14:05 50.66623 5.17413 33868 ft 448 kts 296°
2026-05-05 14:06 50.69776 5.09012 33889 ft 448 kts 297°
2026-05-05 14:06 50.72965 5.00485 33873 ft 448 kts 297°
2026-05-05 14:07 50.76106 4.92060 33878 ft 449 kts 297°
2026-05-05 14:07 50.79264 4.83561 33875 ft 448 kts 296°
2026-05-05 14:08 50.82418 4.75063 33883 ft 447 kts 296°
2026-05-05 14:08 50.85554 4.66568 33896 ft 447 kts 296°
2026-05-05 14:09 50.88685 4.58044 33885 ft 448 kts 296°
2026-05-05 14:09 50.91842 4.49501 33869 ft 450 kts 297°
2026-05-05 14:10 50.95109 4.41033 33865 ft 451 kts 298°
2026-05-05 14:10 50.98402 4.32569 33879 ft 451 kts 297°
2026-05-05 14:11 51.01663 4.24065 33874 ft 451 kts 297°
2026-05-05 14:11 51.04355 4.16969 33886 ft 451 kts 297°
2026-05-05 14:12 51.07594 4.08420 33889 ft 451 kts 297°
2026-05-05 14:12 51.10832 3.99868 33885 ft 451 kts 297°
2026-05-05 14:13 51.14060 3.91296 33877 ft 451 kts 297°
2026-05-05 14:13 51.17284 3.82721 33877 ft 451 kts 297°
2026-05-05 14:14 51.20502 3.74131 33889 ft 451 kts 297°
2026-05-05 14:14 51.23423 3.65329 33883 ft 445 kts 286°
2026-05-05 14:15 51.24935 3.55843 33902 ft 440 kts 277°
2026-05-05 14:15 51.26203 3.46285 33892 ft 440 kts 278°
2026-05-05 14:16 51.27470 3.36719 33907 ft 440 kts 277°
2026-05-05 14:16 51.28707 3.27143 33918 ft 440 kts 278°
2026-05-05 14:17 51.29926 3.17569 33918 ft 440 kts 278°
2026-05-05 14:17 51.31125 3.08077 33916 ft 439 kts 278°
2026-05-05 14:18 51.32332 2.98524 33919 ft 438 kts 278°
2026-05-05 14:18 51.33530 2.88967 33936 ft 438 kts 277°
2026-05-05 14:19 51.34710 2.79418 33958 ft 437 kts 278°
2026-05-05 14:19 51.35883 2.69911 33943 ft 435 kts 278°
2026-05-05 14:20 51.37059 2.60413 33948 ft 434 kts 278°
2026-05-05 14:20 51.38226 2.50937 33937 ft 434 kts 278°
2026-05-05 14:21 51.39377 2.41466 33936 ft 433 kts 278°
2026-05-05 14:21 51.40512 2.31989 33947 ft 433 kts 278°
2026-05-05 14:22 51.41645 2.22513 33953 ft 433 kts 278°
2026-05-05 14:22 51.42803 2.13041 33951 ft 433 kts 278°
2026-05-05 14:23 51.43960 2.03569 33954 ft 433 kts 278°
2026-05-05 14:23 51.45107 1.94085 33957 ft 433 kts 278°
2026-05-05 14:24 51.46220 1.84590 33942 ft 434 kts 278°
2026-05-05 14:24 51.47321 1.75048 33933 ft 436 kts 278°
2026-05-05 14:25 51.48415 1.65482 33937 ft 436 kts 278°
2026-05-05 14:25 51.49508 1.55887 33938 ft 437 kts 278°
2026-05-05 14:26 51.50588 1.46359 33943 ft 437 kts 278°
2026-05-05 14:26 51.51678 1.36693 33960 ft 437 kts 278°
2026-05-05 14:27 51.52749 1.27106 33971 ft 436 kts 278°
2026-05-05 14:27 51.53798 1.17592 33969 ft 435 kts 278°
2026-05-05 14:28 51.54852 1.08027 33964 ft 435 kts 278°
2026-05-05 14:28 51.55891 0.98466 33956 ft 434 kts 278°
2026-05-05 14:29 51.56922 0.88929 33993 ft 432 kts 277°
2026-05-05 14:29 51.57941 0.79448 34003 ft 429 kts 277°
2026-05-05 14:30 51.58938 0.70018 33998 ft 427 kts 277°
2026-05-05 14:30 51.59924 0.60618 33994 ft 426 kts 277°
2026-05-05 14:31 51.60911 0.51231 33972 ft 426 kts 277°
2026-05-05 14:31 51.61901 0.41798 33948 ft 428 kts 277°
2026-05-05 14:32 51.62868 0.32338 33819 ft 427 kts 277°
2026-05-05 14:32 51.63344 0.27642 33069 ft 426 kts 277°
2026-05-05 14:32 51.63821 0.22938 32360 ft 425 kts 276°
2026-05-05 14:33 51.64302 0.18263 31757 ft 422 kts 277°
2026-05-05 14:33 51.65075 0.13692 31176 ft 423 kts 288°
2026-05-05 14:33 51.66253 0.09360 30601 ft 423 kts 291°
2026-05-05 14:33 51.67472 0.05062 30038 ft 421 kts 291°
2026-05-05 14:34 51.68682 0.00783 29405 ft 418 kts 291°
2026-05-05 14:34 51.69877 -0.03465 28895 ft 414 kts 291°
2026-05-05 14:34 51.71055 -0.07675 28366 ft 410 kts 291°
2026-05-05 14:34 51.72219 -0.11852 27846 ft 406 kts 291°
2026-05-05 14:35 51.73361 -0.15968 27351 ft 402 kts 291°
2026-05-05 14:35 51.74491 -0.20041 26840 ft 399 kts 291°
2026-05-05 14:35 51.75476 -0.23586 26416 ft 395 kts 292°
2026-05-05 14:35 51.76594 -0.27607 25938 ft 392 kts 292°
2026-05-05 14:36 51.77605 -0.31248 25508 ft 389 kts 292°
2026-05-05 14:36 51.78705 -0.35214 24986 ft 386 kts 292°
2026-05-05 14:36 51.79926 -0.39000 24552 ft 384 kts 302°
2026-05-05 14:36 51.81612 -0.42326 24141 ft 383 kts 314°
2026-05-05 14:37 51.83696 -0.44982 23757 ft 381 kts 326°
2026-05-05 14:37 51.85964 -0.47180 23301 ft 378 kts 327°
2026-05-05 14:37 51.88214 -0.49352 22794 ft 376 kts 327°
2026-05-05 14:37 51.90447 -0.51516 22300 ft 373 kts 327°
2026-05-05 14:38 51.92663 -0.53678 21810 ft 370 kts 327°
2026-05-05 14:38 51.94861 -0.55825 21345 ft 368 kts 327°
2026-05-05 14:38 51.97047 -0.57961 20884 ft 366 kts 327°
2026-05-05 14:38 51.99220 -0.60083 20408 ft 363 kts 327°
2026-05-05 14:39 52.01373 -0.62192 19964 ft 361 kts 327°
2026-05-05 14:39 52.03520 -0.64296 19522 ft 359 kts 328°
2026-05-05 14:39 52.05651 -0.66389 19093 ft 357 kts 327°
2026-05-05 14:39 52.07769 -0.68474 18664 ft 355 kts 327°
2026-05-05 14:40 52.09875 -0.70549 18249 ft 353 kts 327°
2026-05-05 14:40 52.11971 -0.72615 17790 ft 351 kts 327°
2026-05-05 14:40 52.14051 -0.74664 17341 ft 349 kts 328°
2026-05-05 14:40 52.16118 -0.76702 16910 ft 346 kts 327°
2026-05-05 14:41 52.18173 -0.78731 16491 ft 344 kts 328°
2026-05-05 14:41 52.20210 -0.80744 16092 ft 341 kts 327°
2026-05-05 14:41 52.22195 -0.82840 15692 ft 338 kts 320°
2026-05-05 14:41 52.23823 -0.85494 15298 ft 334 kts 306°
2026-05-05 14:42 52.25018 -0.88713 14886 ft 331 kts 293°
2026-05-05 14:42 52.25714 -0.92268 14495 ft 328 kts 282°
2026-05-05 14:42 52.26208 -0.95893 14124 ft 326 kts 282°
2026-05-05 14:42 52.26699 -0.99492 13770 ft 323 kts 282°
2026-05-05 14:43 52.27187 -1.03055 13374 ft 321 kts 282°
2026-05-05 14:43 52.27674 -1.06606 12927 ft 319 kts 282°
2026-05-05 14:43 52.28158 -1.10132 12513 ft 318 kts 282°
2026-05-05 14:43 52.28638 -1.13636 12115 ft 315 kts 282°
2026-05-05 14:44 52.29110 -1.17106 11694 ft 313 kts 282°
2026-05-05 14:44 52.29578 -1.20577 11278 ft 312 kts 282°
2026-05-05 14:44 52.30039 -1.23998 10880 ft 310 kts 282°
2026-05-05 14:44 52.30499 -1.27428 10611 ft 303 kts 282°
2026-05-05 14:45 52.30941 -1.30726 10482 ft 292 kts 282°
2026-05-05 14:45 52.31370 -1.33924 10277 ft 285 kts 282°
2026-05-05 14:45 52.31792 -1.37062 9984 ft 281 kts 282°
2026-05-05 14:45 52.32208 -1.40163 9621 ft 279 kts 282°
2026-05-05 14:46 52.32620 -1.43265 9208 ft 279 kts 283°
2026-05-05 14:46 52.33029 -1.46346 8849 ft 276 kts 283°
2026-05-05 14:46 52.33434 -1.49400 8441 ft 275 kts 283°
2026-05-05 14:46 52.33842 -1.52473 7983 ft 277 kts 283°
2026-05-05 14:47 52.34246 -1.55547 7567 ft 276 kts 283°
2026-05-05 14:47 52.34652 -1.58625 7149 ft 276 kts 283°
2026-05-05 14:47 52.35057 -1.61687 6736 ft 276 kts 283°
2026-05-05 14:47 52.35175 -1.64792 6349 ft 274 kts 259°
2026-05-05 14:48 52.34438 -1.67622 5913 ft 274 kts 232°
2026-05-05 14:48 52.32976 -1.69562 5490 ft 272 kts 203°
2026-05-05 14:48 52.31138 -1.70244 5002 ft 273 kts 184°
2026-05-05 14:48 52.29235 -1.70386 4534 ft 273 kts 181°
2026-05-05 14:49 52.27381 -1.70094 4335 ft 263 kts 162°
2026-05-05 14:49 52.25807 -1.68799 4199 ft 247 kts 139°
2026-05-05 14:49 52.24716 -1.66768 4063 ft 231 kts 116°
2026-05-05 14:49 52.24175 -1.64394 3933 ft 218 kts 95°
2026-05-05 14:50 52.24152 -1.62007 3803 ft 205 kts 77°
2026-05-05 14:50 52.24582 -1.59925 3723 ft 189 kts 58°
2026-05-05 14:50 52.25366 -1.58300 3527 ft 179 kts 40°
2026-05-05 14:50 52.26401 -1.57208 3255 ft 176 kts 22°
2026-05-05 14:51 52.27575 -1.56729 3032 ft 175 kts
2026-05-05 14:51 52.28785 -1.56920 3000 ft 178 kts 341°
2026-05-05 14:51 52.29871 -1.57903 3002 ft 179 kts 329°
2026-05-05 14:51 52.30920 -1.58997 2999 ft 178 kts 329°
2026-05-05 14:52 52.31972 -1.60078 3003 ft 179 kts 329°
2026-05-05 14:52 52.33026 -1.61161 2999 ft 178 kts 329°
2026-05-05 14:52 52.34063 -1.62275 2863 ft 178 kts 327°
2026-05-05 14:52 52.35095 -1.63406 2652 ft 177 kts 327°
2026-05-05 14:53 52.36088 -1.64502 2423 ft 166 kts 327°
2026-05-05 14:53 52.37008 -1.65518 2219 ft 152 kts 327°
2026-05-05 14:53 52.37855 -1.66453 1998 ft 143 kts 327°
2026-05-05 14:53 52.38657 -1.67336 1766 ft 135 kts 328°
2026-05-05 14:54 52.39437 -1.68196 1633 ft 135 kts 327°
2026-05-05 14:54 52.40216 -1.69060 1450 ft 135 kts 328°
2026-05-05 14:54 52.40989 -1.69915 1241 ft 133 kts 328°
2026-05-05 14:54 52.41749 -1.70758 1029 ft 131 kts 327°
2026-05-05 14:55 52.42512 -1.71602 840 ft 133 kts 328°
2026-05-05 14:55 52.43273 -1.72451 666 ft 132 kts 328°
2026-05-05 14:55 52.44036 -1.73297 480 ft 132 kts 327°
2026-05-05 14:55 52.44795 -1.74145 337 ft 129 kts 326°
2026-05-05 14:56 52.45363 -1.74779 324 ft 65 kts 326°
2026-05-05 14:56 52.45706 -1.75155 323 ft 54 kts 327°
2026-05-05 14:56 52.45994 -1.75474 313 ft 46 kts 324°
2026-05-05 14:56 52.46159 -1.75599 310 ft 11 kts 40°
2026-05-05 14:57 52.46195 -1.75510 307 ft 15 kts 51°
2026-05-05 14:57 52.46168 -1.75342 303 ft 18 kts 144°
2026-05-05 14:57 52.46070 -1.75233 305 ft 16 kts 146°
2026-05-05 14:57 52.45987 -1.75140 305 ft 14 kts 146°
2026-05-05 14:58 52.45883 -1.75026 306 ft 20 kts 146°
2026-05-05 14:58 52.45779 -1.74907 309 ft 16 kts 145°
2026-05-05 14:58 52.45721 -1.74842 311 ft 13 kts 145°
2026-05-05 14:58 52.45635 -1.74748 316 ft 14 kts 147°
2026-05-05 14:59 52.45572 -1.74677 321 ft 15 kts 145°
2026-05-05 14:59 52.45497 -1.74590 323 ft 12 kts 140°
2026-05-05 14:59 52.45392 -1.74297 322 ft 30 kts 117°
2026-05-05 14:59 52.45296 -1.74002 323 ft 25 kts 129°
2026-05-05 15:00 52.45199 -1.73884 323 ft 26 kts 146°
2026-05-05 15:00 52.45116 -1.73680 322 ft 19 kts 55°
2026-05-05 15:00 52.45162 -1.73540 323 ft 12 kts 107°
2026-05-05 15:00 52.45128 -1.73506 323 ft 4 kts 141°
2026-05-05 15:01 52.45116 -1.73490 323 ft 0 kts 141°
2026-05-05 15:01 52.45115 -1.73490 323 ft 0 kts 141°